Showing default

COSMOS 2428, 31792

Orbit data source: Space-Track

COSMOS 2428, 31792 is a payload satellite owned by GRU (CIS) in LEO that was launched on Fri, 29 Jun 2007 UTC via a ZENIT-2M launch vehicle from the Tyuratam Missile And Space Complex (TTMTR). Payload-class satellites include a variety of spacecraft equipped with specific instruments for various scientific and technological missions. These include communications satellites like Starlink; space stations such as the ISS; scientific satellites like the Hubble; Earth observation satellites from companies like Planet Labs, Umbra, and HawkEye 360; GPS; miniature CubeSats for education and research; and military/defense satellites.

Loading next visibility...
Identifier
31792, 2007-029A
Orbit
LEO
Country
Flag of CISCIS
Related business
Manufacturer
Yuzhnoe
Mission
Operational Defense Sigint
Bus & Motor
TSELINA-2, Unknown motor
Mass
3,250 kg wet, 3,250 kg dry
Launch date (UTC)
2007-06-29 (19 years ago)
Launch vehicle
ZENIT-2M
Launch site
Tyuratam Missile And Space Complex (TTMTR)
Object type
Payload
Rocket body
Debris
Shape & HBR
Cyl + 2 Pan + 1 Ant, 11.3 m
Radar Cross Section
15.209 m², Large (>1 m²)

Expand to show TLE details & history
Last TLE update: 3 days ago

TLE from 3 days ago
0 COSMOS 2428
1 31792U 07029A   26170.90473080 -.00000091  00000-0 -23180-4 0  9997
2 31792  70.9350 348.7715 0007125 129.7553 230.4196 14.12927887978536
Epoch: 2026-06-19T21:42Z
TLE epoch observation values (Epoch: 2026-06-19T21:42:48.741Z)
Latitude
-0.00008°
Longitude
114.94138°
Altitude
855.047 km
Speed
7.424 km/s
True Right ascension
23h 15m 05s
True Declination
0° 00' 00"
Sunlit
Object was in daylight at epoch
Visualization orbit readout
Latitude
Unknown
Longitude
Unknown
Altitude
Unknown
Speed
Unknown
Apparent Right ascension
Unknown
Apparent Declination
Unknown
Sunlit
N/A
Visualization observer readout
Local Sidereal Time
00:51:29
Azimuth
Unknown
Elevation
Unknown
Doppler factor
Unknown
Orbital elements
Apogee altitude
852.451 km
Perigee altitude
842.155 km
Semi-major axis
7,225.44 km
Eccentricity
0.00071
Inclination
70.935°
RAAN
348.7715°
Arg. of periapsis
129.7553°
True anomaly
230.35671°
Mean anomaly
230.4196°
Eccentric anomaly
230.38815°
Mean motion
3.53384 °/min
Orbital period
101.87 mins
BSTAR
-0.00002318
Loading maneuver chart data...
Computing Atmospheric mass density...

Documentation

Showing up to 5 results
|